TimeCET,TemperatureF,Dew PointF,Humidity,Sea Level PressureIn,VisibilityMPH,Wind Direction,Wind SpeedMPH,Gust SpeedMPH,PrecipitationIn,Events,Conditions,WindDirDegrees,DateUTC
12:15 AM,48.2,46.4,93,29.74,-9999.0,ENE,4.6,-,N/A,,Clear,60,2013-03-23 23:15:00
12:45 AM,48.2,46.4,93,29.74,6.2,Calm,Calm,-,N/A,,Scattered Clouds,0,2013-03-23 23:45:00
1:15 AM,48.2,46.4,93,29.74,6.2,North,1.2,-,N/A,,Scattered Clouds,350,2013-03-24 00:15:00
1:45 AM,48.2,46.4,93,29.74,6.2,Calm,Calm,-,N/A,,Scattered Clouds,0,2013-03-24 00:45:00
2:15 AM,48.2,46.4,93,29.74,6.2,NE,4.6,-,N/A,,Scattered Clouds,40,2013-03-24 01:15:00
2:45 AM,48.2,46.4,93,29.74,6.2,ENE,3.5,-,N/A,,Scattered Clouds,60,2013-03-24 01:45:00
3:15 AM,46.4,46.4,100,29.71,3.7,Calm,Calm,-,N/A,,Scattered Clouds,0,2013-03-24 02:15:00
3:45 AM,46.4,46.4,100,29.71,3.7,NNE,2.3,-,N/A,,Scattered Clouds,30,2013-03-24 02:45:00
4:15 AM,46.4,46.4,100,29.68,3.7,NNE,1.2,-,N/A,,Scattered Clouds,30,2013-03-24 03:15:00
4:45 AM,46.4,46.4,100,29.65,5.0,Calm,Calm,-,N/A,,Scattered Clouds,0,2013-03-24 03:45:00
5:15 AM,44.6,42.8,93,29.65,5.0,Calm,Calm,-,N/A,,Scattered Clouds,0,2013-03-24 04:15:00
5:45 AM,44.6,42.8,93,29.62,6.2,Calm,Calm,-,N/A,,Scattered Clouds,0,2013-03-24 04:45:00
6:15 AM,44.6,42.8,93,29.62,6.2,Calm,Calm,-,N/A,,Scattered Clouds,0,2013-03-24 05:15:00
6:45 AM,42.8,41.0,93,29.62,6.2,East,2.3,-,N/A,,Scattered Clouds,90,2013-03-24 05:45:00
7:15 AM,46.4,42.8,87,29.62,6.2,Calm,Calm,-,N/A,,Scattered Clouds,0,2013-03-24 06:15:00
7:45 AM,46.4,42.8,87,29.62,6.2,Calm,Calm,-,N/A,,Scattered Clouds,0,2013-03-24 06:45:00
8:15 AM,51.8,46.4,82,29.59,6.2,NNW,2.3,-,N/A,,Scattered Clouds,340,2013-03-24 07:15:00
8:45 AM,57.2,42.8,59,29.59,-9999.0,North,4.6,-,N/A,,Clear,360,2013-03-24 07:45:00
9:15 AM,59.0,42.8,55,29.59,-9999.0,WNW,1.2,-,N/A,,Clear,300,2013-03-24 08:15:00
9:45 AM,59.0,44.6,59,29.59,-9999.0,West,2.3,-,N/A,,Clear,280,2013-03-24 08:45:00
10:15 AM,60.8,41.0,48,29.59,-9999.0,WNW,3.5,-,N/A,,Clear,290,2013-03-24 09:15:00
10:45 AM,62.6,42.8,48,29.59,-9999.0,North,3.5,-,N/A,,Clear,350,2013-03-24 09:45:00
11:15 AM,66.2,39.2,37,29.56,-9999.0,SE,15.0,-,N/A,,Clear,140,2013-03-24 10:15:00
11:45 AM,68.0,41.0,37,29.56,-9999.0,SE,15.0,-,N/A,,Clear,130,2013-03-24 10:45:00
12:15 PM,68.0,41.0,37,29.56,-9999.0,SE,13.8,-,N/A,,Clear,130,2013-03-24 11:15:00
12:45 PM,69.8,39.2,33,29.56,-9999.0,SSE,16.1,27.6,N/A,,Clear,150,2013-03-24 11:45:00
1:15 PM,69.8,37.4,31,29.53,-9999.0,SSE,17.3,28.8,N/A,,Clear,160,2013-03-24 12:15:00
1:45 PM,68.0,35.6,30,29.50,-9999.0,SSE,16.1,-,N/A,,Clear,150,2013-03-24 12:45:00
2:15 PM,66.2,33.8,30,29.50,6.2,SE,19.6,-,N/A,,Partly Cloudy,140,2013-03-24 13:15:00
2:45 PM,66.2,33.8,30,29.47,6.2,SSE,16.1,-,N/A,,Scattered Clouds,150,2013-03-24 13:45:00
3:15 PM,64.4,33.8,32,29.47,6.2,SSE,19.6,31.1,N/A,,Scattered Clouds,160,2013-03-24 14:15:00
3:45 PM,64.4,33.8,32,29.47,6.2,SSE,17.3,-,N/A,,Scattered Clouds,160,2013-03-24 14:45:00
4:15 PM,64.4,35.6,34,29.47,6.2,SSE,15.0,-,N/A,,Scattered Clouds,160,2013-03-24 15:15:00
4:45 PM,62.6,35.6,37,29.47,6.2,South,11.5,24.2,N/A,,Scattered Clouds,170,2013-03-24 15:45:00
5:15 PM,62.6,37.4,39,29.47,6.2,SSE,16.1,-,N/A,,Scattered Clouds,160,2013-03-24 16:15:00
5:45 PM,60.8,39.2,45,29.47,6.2,SSE,6.9,-,N/A,,Scattered Clouds,160,2013-03-24 16:45:00
6:15 PM,59.0,42.8,55,29.47,6.2,SSE,12.7,-,N/A,,Scattered Clouds,160,2013-03-24 17:15:00
6:45 PM,59.0,44.6,59,29.47,6.2,SSE,10.4,21.9,N/A,,Mostly Cloudy,150,2013-03-24 17:45:00
7:15 PM,59.0,44.6,59,29.47,6.2,SSE,13.8,-,N/A,,Mostly Cloudy,150,2013-03-24 18:15:00
7:45 PM,59.0,46.4,63,29.44,6.2,SE,6.9,-,N/A,,Mostly Cloudy,140,2013-03-24 18:45:00
8:15 PM,57.2,46.4,67,29.44,6.2,SSE,8.1,-,N/A,,Scattered Clouds,160,2013-03-24 19:15:00
8:45 PM,55.4,44.6,67,29.44,6.2,SSE,6.9,-,N/A,,Partly Cloudy,160,2013-03-24 19:45:00
9:15 PM,55.4,48.2,77,29.47,-9999.0,SSE,8.1,-,N/A,,Clear,150,2013-03-24 20:15:00
9:45 PM,55.4,48.2,77,29.44,-9999.0,SE,8.1,-,N/A,,Clear,140,2013-03-24 20:45:00
10:15 PM,51.8,41.0,67,29.44,-9999.0,ENE,4.6,-,N/A,,Clear,60,2013-03-24 21:15:00
10:45 PM,53.6,42.8,67,29.44,6.2,SE,2.3,-,N/A,,Scattered Clouds,130,2013-03-24 21:45:00
11:15 PM,53.6,46.4,77,29.44,6.2,East,3.5,-,N/A,,Scattered Clouds,90,2013-03-24 22:15:00
11:45 PM,53.6,46.4,77,29.42,6.2,NE,2.3,-,N/A,,Partly Cloudy,40,2013-03-24 22:45:00